Regional Weather Roundup
Issued by NWS

Home | Current Version | Previous Version | Graphics & Text | Print | Product List | Glossary On
Versions: 1 2 3 4 5 6 7 8 9 10 11 12 13 14 15 16 17 18 19 20 21 22 23 24 25 26 27 28 29 30 31 32 33 34 35 36 37 38 39 40 41 42 43 44 45 46 47 48 49 50
000
ASUS45 KCYS 031910
RWRWY

WYOMING REGIONAL WEATHER ROUNDUP
NATIONAL WEATHER SERVICE CHEYENNE WY
1200 PM MST TUE MAR 03 2015

NOTE:  "FAIR" INDICATES FEW OR NO CLOUDS BELOW 12,000 FEET
WITH NO SIGNIFICANT WEATHER AND/OR OBSTRUCTIONS TO VISIBILITY.

WYZ001-032000-
YELLOWSTONE NATIONAL PARK

CITY           SKY/WX    TMP DP  RH WIND       PRES   REMARKS
LK YELLOWSTONE   N/A     11  -4  51 VRB5      29.76F WCI   3
W YELLOWSTONE  NOT AVBL

$$
WYZ002>013-054>058-071-098>099-032000-
NORTHERN WYOMING

CITY           SKY/WX    TMP DP  RH WIND       PRES   REMARKS
JACKSON        NOT AVBL
CODY           CLOUDY     9   1  72 N13       29.97F WCI  -7
GREYBULL       CLOUDY    15   7  70 NW17      30.02F WCI  -1
WORLAND        CLOUDY    15   6  67 NW14      30.01S WCI   0
SHERIDAN       CLOUDY    10   0  63 NW10      30.05F WCI  -4
BUFFALO        CLOUDY     8   1  73 N28G33    29.94F WCI -14
GILLETTE       FAIR      10   0  63 N17       29.98F WCI  -8
HULETT         CLOUDY    12  -2  52 N13G20    29.98F WCI  -3
NEWCASTLE      FAIR      16   3  57 NW14G22   29.97S WCI   1

$$
WYZ014>020-022>026-101>103-032000-
CENTRAL WYOMING

CITY           SKY/WX    TMP DP  RH WIND       PRES   REMARKS
BIG PINEY      CLOUDY    22  15  75 S8        29.72S WCI  12
PINEDALE       LGT SNOW  21  14  73 S9        29.72S WCI  11
DUBOIS         MOCLDY    12   3  67 SE10      29.77F WCI  -1
LANDER         LGT SNOW  12   5  73 NE9       29.90S WCI   0
RIVERTON       LGT SNOW  12   5  73 E9        29.91S WCI   0
CASPER         LGT SNOW   9   2  73 E7        29.93S WCI  -2
DOUGLAS        CLOUDY    13   4  67 NW13      29.96S HAZE    WCI  -2

$$
WYZ021-027>030-104>119-032000-
SOUTHERN WYOMING

CITY           SKY/WX    TMP DP  RH WIND       PRES   REMARKS
EVANSTON       CLOUDY    26  14  60 NW14      29.76R WCI  14
KEMMERER       MOCLDY    28  16  59 W18       29.72R WCI  16
FORT BRIDGER   CLOUDY    28  24  84 NW15      29.77R WCI  16
ROCK SPRINGS   LGT SNOW  13   9  84 NE18      29.75R FOG     WCI  -4
DIXON          CLOUDY    33  26  76 SW16      29.73F WCI  22
RAWLINS        LGT SNOW  14   7  73 NE13      29.74F WCI   0
SARATOGA       LGT SNOW  18  12  79 NW6       29.73F WCI   9
LARAMIE        CLOUDY    20  13  74 S16       29.71F WCI   6
CHEYENNE       LGT SNOW  13   4  67 N12       29.85F WCI  -1
TORRINGTON     MIX PCPN  17   7  64 N13G18    29.98F WCI   4
PINE BLUFFS    FLURRIES  18  10  73 N15       29.92F WCI   3

$$


USA.gov is the U.S. government's official web portal to all federal, state and local government web resources and services.